RYR9EY LICC-LIMC

Flight info

Callsign RYR9EY
Flight time 1h 32m
Altitude 34000
Route BUDIN DCT NERAR DCT TAGEL DCT TORLI DCT MEDAL DCT GILIO DCT UPDIN DCT SPEZI DCT IDONA DCT MEBUR
Aircraft B738/M-SDE2E3FGHIRWXY/LB1

Departure

Time 2026-05-06 21:16
Airport Catania-Fontanarossa Airport (LICC)

Arrival

Time 2026-05-06 22:49
Airport Milan Malpensa International Airport (LIMC)
Time Latitude Longitude Altitude Speed Heading
2026-05-06 21:11 37.46851 15.06613 27 ft 2 kts 314°
2026-05-06 21:11 37.46845 15.06630 27 ft 1 kts 270°
2026-05-06 21:11 37.46844 15.06634 27 ft 0 kts 267°
2026-05-06 21:13 37.46843 15.06609 27 ft 7 kts 266°
2026-05-06 21:13 37.46836 15.06510 30 ft 16 kts 264°
2026-05-06 21:13 37.46819 15.06350 28 ft 20 kts 263°
2026-05-06 21:13 37.46804 15.06169 32 ft 22 kts 264°
2026-05-06 21:14 37.46787 15.05966 34 ft 25 kts 264°
2026-05-06 21:14 37.46770 15.05751 37 ft 23 kts 264°
2026-05-06 21:14 37.46756 15.05581 38 ft 15 kts 264°
2026-05-06 21:14 37.46705 15.05475 38 ft 10 kts 208°
2026-05-06 21:15 37.46689 15.05469 38 ft 0 kts 193°
2026-05-06 21:15 37.46677 15.05466 38 ft 6 kts 189°
2026-05-06 21:15 37.46605 15.05505 35 ft 18 kts 128°
2026-05-06 21:16 37.46603 15.05730 32 ft 48 kts 84°
2026-05-06 21:16 37.46666 15.06466 31 ft 119 kts 84°
2026-05-06 21:16 37.46776 15.07752 167 ft 164 kts 83°
2026-05-06 21:16 37.46880 15.09171 1045 ft 161 kts 81°
2026-05-06 21:17 37.47078 15.10530 2008 ft 156 kts 80°
2026-05-06 21:17 37.47269 15.11918 2683 ft 171 kts 82°
2026-05-06 21:17 37.47488 15.13517 3019 ft 200 kts 83°
2026-05-06 21:17 37.47742 15.15329 3362 ft 220 kts 82°
2026-05-06 21:18 37.48207 15.17285 3594 ft 252 kts 59°
2026-05-06 21:18 37.49617 15.18708 4223 ft 275 kts 24°
2026-05-06 21:18 37.51540 15.19120 5043 ft 287 kts
2026-05-06 21:18 37.53555 15.19005 5881 ft 294 kts 356°
2026-05-06 21:19 37.55612 15.18733 6687 ft 300 kts 353°
2026-05-06 21:19 37.57696 15.18397 7515 ft 303 kts 352°
2026-05-06 21:19 37.59799 15.18064 8358 ft 307 kts 352°
2026-05-06 21:19 37.61929 15.17752 9182 ft 311 kts 352°
2026-05-06 21:20 37.64091 15.17458 10020 ft 314 kts 352°
2026-05-06 21:20 37.65544 15.17270 10439 ft 321 kts 352°
2026-05-06 21:20 37.68676 15.16881 10719 ft 355 kts 352°
2026-05-06 21:20 37.71203 15.16579 11092 ft 371 kts 352°
2026-05-06 21:21 37.72918 15.16381 11506 ft 376 kts 351°
2026-05-06 21:21 37.75542 15.16085 12214 ft 380 kts 351°
2026-05-06 21:21 37.78176 15.15792 13053 ft 380 kts 350°
2026-05-06 21:21 37.80823 15.15499 13786 ft 383 kts 350°
2026-05-06 21:22 37.83491 15.15202 14435 ft 387 kts 350°
2026-05-06 21:22 37.86185 15.14900 15154 ft 389 kts 350°
2026-05-06 21:22 37.88884 15.14601 15903 ft 390 kts 350°
2026-05-06 21:22 37.91594 15.14300 16654 ft 391 kts 350°
2026-05-06 21:23 37.94304 15.13995 17400 ft 392 kts 350°
2026-05-06 21:23 37.97033 15.13689 18007 ft 397 kts 350°
2026-05-06 21:23 37.99793 15.13380 18581 ft 401 kts 350°
2026-05-06 21:23 38.02584 15.13069 19137 ft 404 kts 351°
2026-05-06 21:24 38.05396 15.12754 19705 ft 407 kts 351°
2026-05-06 21:24 38.08232 15.12439 20238 ft 411 kts 351°
2026-05-06 21:24 38.11093 15.12119 20764 ft 415 kts 351°
2026-05-06 21:24 38.13982 15.11794 21280 ft 418 kts 351°
2026-05-06 21:25 38.16888 15.11467 21826 ft 421 kts 351°
2026-05-06 21:25 38.19816 15.11137 22322 ft 425 kts 351°
2026-05-06 21:25 38.22779 15.10803 22795 ft 429 kts 352°
2026-05-06 21:25 38.25764 15.10467 23259 ft 432 kts 352°
2026-05-06 21:26 38.28773 15.10128 23704 ft 436 kts 352°
2026-05-06 21:26 38.31801 15.09786 24109 ft 439 kts 352°
2026-05-06 21:26 38.34848 15.09443 24522 ft 441 kts 352°
2026-05-06 21:26 38.37913 15.09097 24940 ft 444 kts 352°
2026-05-06 21:27 38.40997 15.08748 25315 ft 447 kts 352°
2026-05-06 21:27 38.44107 15.08337 25679 ft 449 kts 347°
2026-05-06 21:27 38.47115 15.07332 26031 ft 447 kts 336°
2026-05-06 21:27 38.49937 15.05687 26412 ft 445 kts 327°
2026-05-06 21:28 38.52500 15.03478 26773 ft 444 kts 319°
2026-05-06 21:28 38.54927 15.01102 27101 ft 447 kts 319°
2026-05-06 21:28 38.57420 14.98622 27434 ft 450 kts 319°
2026-05-06 21:28 38.59898 14.96157 27773 ft 453 kts 319°
2026-05-06 21:29 38.62369 14.93712 28129 ft 455 kts 319°
2026-05-06 21:29 38.64909 14.91217 28621 ft 454 kts 319°
2026-05-06 21:29 38.67384 14.88799 29150 ft 452 kts 319°
2026-05-06 21:29 38.69884 14.86360 29638 ft 451 kts 319°
2026-05-06 21:30 38.72381 14.83925 30053 ft 452 kts 319°
2026-05-06 21:30 38.74916 14.81451 30444 ft 451 kts 319°
2026-05-06 21:30 38.77364 14.79062 30953 ft 446 kts 319°
2026-05-06 21:30 38.79820 14.76663 31527 ft 441 kts 318°
2026-05-06 21:31 38.82242 14.74295 32073 ft 436 kts 318°
2026-05-06 21:31 38.84647 14.71940 32519 ft 433 kts 318°
2026-05-06 21:31 38.87033 14.69599 32927 ft 431 kts 317°
2026-05-06 21:31 38.89416 14.67258 33260 ft 432 kts 317°
2026-05-06 21:32 38.91804 14.64910 33587 ft 432 kts 317°
2026-05-06 21:32 38.96570 14.60219 33972 ft 435 kts 317°
2026-05-06 21:32 38.98971 14.57852 33991 ft 434 kts 317°
2026-05-06 21:33 39.03694 14.53198 33985 ft 427 kts 317°
2026-05-06 21:33 39.08396 14.48553 34009 ft 427 kts 317°
2026-05-06 21:34 39.13111 14.43884 34024 ft 428 kts 317°
2026-05-06 21:34 39.17847 14.39187 34013 ft 430 kts 317°
2026-05-06 21:35 39.22599 14.34467 34007 ft 433 kts 317°
2026-05-06 21:35 39.27376 14.29715 34007 ft 435 kts 317°
2026-05-06 21:36 39.32182 14.24960 34005 ft 437 kts 318°
2026-05-06 21:36 39.37091 14.20313 34027 ft 438 kts 319°
2026-05-06 21:37 39.42033 14.15673 34016 ft 439 kts 319°
2026-05-06 21:37 39.46971 14.11007 34012 ft 440 kts 318°
2026-05-06 21:38 39.51905 14.06321 34018 ft 440 kts 318°
2026-05-06 21:38 39.56833 14.01626 34010 ft 439 kts 318°
2026-05-06 21:39 39.61594 13.97083 34013 ft 439 kts 318°
2026-05-06 21:39 39.66501 13.92392 34020 ft 438 kts 318°
2026-05-06 21:40 39.71405 13.87694 34010 ft 438 kts 318°
2026-05-06 21:40 39.76306 13.82992 34021 ft 438 kts 318°
2026-05-06 21:41 39.81202 13.78286 34019 ft 438 kts 317°
2026-05-06 21:41 39.86093 13.73576 34022 ft 438 kts 317°
2026-05-06 21:42 39.90954 13.68887 34021 ft 438 kts 317°
2026-05-06 21:42 39.95847 13.64158 34023 ft 438 kts 317°
2026-05-06 21:43 40.00728 13.59432 34023 ft 438 kts 317°
2026-05-06 21:43 40.05621 13.54686 34022 ft 439 kts 317°
2026-05-06 21:44 40.10523 13.49922 34022 ft 439 kts 317°
2026-05-06 21:44 40.15432 13.45141 34034 ft 442 kts 317°
2026-05-06 21:45 40.20371 13.40324 34026 ft 444 kts 317°
2026-05-06 21:45 40.25325 13.35482 34024 ft 445 kts 317°
2026-05-06 21:46 40.30298 13.30616 34027 ft 447 kts 317°
2026-05-06 21:46 40.35299 13.25747 34028 ft 448 kts 318°
2026-05-06 21:47 40.40311 13.20876 34026 ft 449 kts 317°
2026-05-06 21:47 40.45296 13.16019 34020 ft 449 kts 317°
2026-05-06 21:48 40.50324 13.11110 34032 ft 443 kts 317°
2026-05-06 21:48 40.55192 13.06350 34015 ft 437 kts 317°
2026-05-06 21:49 40.60065 13.01564 34028 ft 438 kts 317°
2026-05-06 21:49 40.64802 12.96903 34029 ft 439 kts 316°
2026-05-06 21:50 40.69700 12.92079 34021 ft 439 kts 316°
2026-05-06 21:50 40.74592 12.87255 34015 ft 439 kts 316°
2026-05-06 21:51 40.79474 12.82431 34015 ft 438 kts 316°
2026-05-06 21:51 40.84349 12.77604 34018 ft 437 kts 316°
2026-05-06 21:52 40.89211 12.72780 34018 ft 437 kts 317°
2026-05-06 21:52 40.94072 12.67948 34013 ft 437 kts 317°
2026-05-06 21:53 40.98919 12.63121 34014 ft 436 kts 317°
2026-05-06 21:53 41.03750 12.58301 34008 ft 435 kts 316°
2026-05-06 21:54 41.08551 12.53502 34008 ft 435 kts 316°
2026-05-06 21:54 41.13407 12.48638 34015 ft 435 kts 316°
2026-05-06 21:55 41.18199 12.43830 34005 ft 434 kts 316°
2026-05-06 21:55 41.23037 12.38967 34025 ft 433 kts 316°
2026-05-06 21:56 41.27804 12.34166 34006 ft 432 kts 316°
2026-05-06 21:56 41.32616 12.29310 34011 ft 430 kts 316°
2026-05-06 21:57 41.37344 12.24530 34014 ft 429 kts 316°
2026-05-06 21:57 41.42092 12.19721 34005 ft 428 kts 316°
2026-05-06 21:58 41.46823 12.14919 34003 ft 427 kts 316°
2026-05-06 21:58 41.51543 12.10119 34010 ft 426 kts 316°
2026-05-06 21:59 41.56251 12.05322 34009 ft 426 kts 316°
2026-05-06 21:59 41.60864 12.00381 33996 ft 421 kts 309°
2026-05-06 22:00 41.64788 11.94938 33994 ft 417 kts 306°
2026-05-06 22:00 41.68740 11.89272 33994 ft 416 kts 307°
2026-05-06 22:01 41.72710 11.83645 33996 ft 415 kts 307°
2026-05-06 22:01 41.76691 11.78048 33996 ft 415 kts 307°
2026-05-06 22:02 41.80669 11.72459 34009 ft 414 kts 306°
2026-05-06 22:02 41.84645 11.66861 34015 ft 415 kts 307°
2026-05-06 22:03 41.88622 11.61251 34002 ft 416 kts 307°
2026-05-06 22:03 41.92609 11.55615 33983 ft 417 kts 307°
2026-05-06 22:04 41.96609 11.49950 33987 ft 418 kts 306°
2026-05-06 22:04 42.00578 11.44317 33979 ft 419 kts 306°
2026-05-06 22:05 42.04587 11.38618 33984 ft 420 kts 306°
2026-05-06 22:05 42.08610 11.32892 33983 ft 421 kts 307°
2026-05-06 22:06 42.12633 11.27157 33984 ft 422 kts 307°
2026-05-06 22:06 42.16657 11.21411 33979 ft 420 kts 307°
2026-05-06 22:07 42.20657 11.15686 33972 ft 418 kts 307°
2026-05-06 22:07 42.24635 11.09981 33975 ft 416 kts 307°
2026-05-06 22:08 42.28591 11.04294 33976 ft 415 kts 307°
2026-05-06 22:08 42.32409 10.98796 33973 ft 413 kts 307°
2026-05-06 22:09 42.36345 10.93145 33967 ft 413 kts 309°
2026-05-06 22:09 42.40092 10.89021 33977 ft 421 kts 318°
2026-05-06 22:10 42.45176 10.84951 33968 ft 428 kts 326°
2026-05-06 22:10 42.50523 10.81320 33965 ft 430 kts 327°
2026-05-06 22:11 42.55885 10.77681 33967 ft 431 kts 326°
2026-05-06 22:11 42.61233 10.73980 33964 ft 432 kts 326°
2026-05-06 22:12 42.66585 10.70233 33962 ft 433 kts 326°
2026-05-06 22:12 42.71937 10.66469 33960 ft 433 kts 326°
2026-05-06 22:13 42.77289 10.62697 33965 ft 434 kts 326°
2026-05-06 22:13 42.82645 10.58916 33958 ft 433 kts 326°
2026-05-06 22:14 42.87995 10.55133 33971 ft 433 kts 325°
2026-05-06 22:14 42.93343 10.51343 33967 ft 433 kts 325°
2026-05-06 22:15 42.98694 10.47543 33967 ft 434 kts 325°
2026-05-06 22:15 43.04042 10.43738 33968 ft 434 kts 325°
2026-05-06 22:16 43.09364 10.39949 33626 ft 426 kts 325°
2026-05-06 22:16 43.11969 10.38097 33353 ft 418 kts 325°
2026-05-06 22:16 43.14528 10.36272 33088 ft 413 kts 325°
2026-05-06 22:17 43.17067 10.34457 32845 ft 410 kts 324°
2026-05-06 22:17 43.19591 10.32648 32585 ft 409 kts 324°
2026-05-06 22:17 43.22113 10.30837 32322 ft 408 kts 324°
2026-05-06 22:17 43.24627 10.29031 32072 ft 407 kts 324°
2026-05-06 22:18 43.27130 10.27232 31818 ft 407 kts 324°
2026-05-06 22:18 43.29602 10.25454 31569 ft 406 kts 324°
2026-05-06 22:18 43.32131 10.23634 31315 ft 405 kts 324°
2026-05-06 22:18 43.34593 10.21861 31071 ft 404 kts 324°
2026-05-06 22:19 43.37082 10.20068 30850 ft 404 kts 324°
2026-05-06 22:19 43.39570 10.18273 30610 ft 403 kts 323°
2026-05-06 22:19 43.42052 10.16481 30383 ft 403 kts 323°
2026-05-06 22:19 43.44498 10.14716 30111 ft 397 kts 323°
2026-05-06 22:20 43.46931 10.12960 29736 ft 394 kts 323°
2026-05-06 22:20 43.49347 10.11212 29379 ft 390 kts 323°
2026-05-06 22:20 43.51734 10.09485 29004 ft 386 kts 323°
2026-05-06 22:20 43.54097 10.07772 28650 ft 382 kts 323°
2026-05-06 22:21 43.56439 10.06072 28280 ft 379 kts 323°
2026-05-06 22:21 43.58763 10.04384 27969 ft 375 kts 323°
2026-05-06 22:21 43.61062 10.02711 27594 ft 373 kts 323°
2026-05-06 22:21 43.63349 10.01046 27237 ft 370 kts 323°
2026-05-06 22:22 43.65483 9.99490 26909 ft 368 kts 323°
2026-05-06 22:22 43.67736 9.97847 26549 ft 365 kts 323°
2026-05-06 22:22 43.69975 9.96213 26221 ft 362 kts 323°
2026-05-06 22:22 43.72195 9.94591 25884 ft 360 kts 323°
2026-05-06 22:23 43.74406 9.92975 25549 ft 358 kts 323°
2026-05-06 22:23 43.76601 9.91369 25221 ft 356 kts 323°
2026-05-06 22:23 43.78783 9.89762 24851 ft 355 kts 323°
2026-05-06 22:23 43.80931 9.88108 24545 ft 352 kts 322°
2026-05-06 22:24 43.83050 9.86441 24220 ft 350 kts 322°
2026-05-06 22:24 43.85155 9.84772 23900 ft 348 kts 322°
2026-05-06 22:24 43.87256 9.83106 23600 ft 347 kts 321°
2026-05-06 22:24 43.89345 9.81451 23175 ft 346 kts 322°
2026-05-06 22:25 43.91438 9.79799 22830 ft 345 kts 323°
2026-05-06 22:25 43.93562 9.78253 22563 ft 344 kts 325°
2026-05-06 22:25 43.95716 9.76766 22306 ft 348 kts 326°
2026-05-06 22:25 43.97904 9.75272 22045 ft 353 kts 326°
2026-05-06 22:26 44.00103 9.73771 21798 ft 354 kts 326°
2026-05-06 22:26 44.02279 9.72283 21553 ft 352 kts 326°
2026-05-06 22:26 44.04491 9.70764 21288 ft 349 kts 326°
2026-05-06 22:26 44.06661 9.69266 21027 ft 347 kts 326°
2026-05-06 22:27 44.08817 9.67771 20769 ft 345 kts 326°
2026-05-06 22:27 44.10959 9.66282 20513 ft 343 kts 326°
2026-05-06 22:27 44.13087 9.64800 20264 ft 342 kts 326°
2026-05-06 22:27 44.15209 9.63320 20015 ft 340 kts 326°
2026-05-06 22:28 44.17318 9.61849 19767 ft 339 kts 326°
2026-05-06 22:28 44.19421 9.60378 19516 ft 337 kts 326°
2026-05-06 22:28 44.21488 9.58930 19300 ft 337 kts 327°
2026-05-06 22:28 44.23577 9.57465 19062 ft 336 kts 327°
2026-05-06 22:29 44.25666 9.56000 18823 ft 335 kts 327°
2026-05-06 22:29 44.27743 9.54542 18577 ft 334 kts 327°
2026-05-06 22:29 44.29813 9.53089 18336 ft 333 kts 327°
2026-05-06 22:29 44.31880 9.51640 18087 ft 331 kts 327°
2026-05-06 22:30 44.33934 9.50200 17801 ft 330 kts 327°
2026-05-06 22:30 44.35976 9.48762 17556 ft 328 kts 327°
2026-05-06 22:30 44.38016 9.47322 17284 ft 328 kts 327°
2026-05-06 22:30 44.40047 9.45887 17045 ft 327 kts 328°
2026-05-06 22:31 44.42073 9.44448 16771 ft 326 kts 328°
2026-05-06 22:31 44.44087 9.43029 16510 ft 322 kts 328°
2026-05-06 22:31 44.46070 9.41633 16221 ft 317 kts 328°
2026-05-06 22:31 44.48026 9.40256 16001 ft 312 kts 328°
2026-05-06 22:32 44.49962 9.38886 15732 ft 312 kts 328°
2026-05-06 22:32 44.51888 9.37523 15483 ft 309 kts 328°
2026-05-06 22:32 44.53800 9.36167 15215 ft 307 kts 328°
2026-05-06 22:32 44.55700 9.34817 14978 ft 305 kts 328°
2026-05-06 22:33 44.57595 9.33471 14742 ft 305 kts 328°
2026-05-06 22:33 44.59489 9.32126 14490 ft 305 kts 328°
2026-05-06 22:33 44.61380 9.30782 14257 ft 305 kts 328°
2026-05-06 22:33 44.63270 9.29435 14018 ft 304 kts 328°
2026-05-06 22:34 44.65158 9.28094 13778 ft 304 kts 328°
2026-05-06 22:34 44.67039 9.26760 13491 ft 302 kts 327°
2026-05-06 22:34 44.68906 9.25433 13219 ft 300 kts 328°
2026-05-06 22:34 44.70765 9.24106 12985 ft 300 kts 327°
2026-05-06 22:35 44.72617 9.22772 12674 ft 298 kts 329°
2026-05-06 22:35 44.74455 9.21459 12452 ft 295 kts 327°
2026-05-06 22:35 44.76291 9.20157 12212 ft 296 kts 328°
2026-05-06 22:35 44.78127 9.18843 11952 ft 296 kts 328°
2026-05-06 22:36 44.79964 9.17523 11686 ft 296 kts 327°
2026-05-06 22:36 44.81792 9.16212 11416 ft 294 kts 328°
2026-05-06 22:36 44.83604 9.14912 11193 ft 292 kts 329°
2026-05-06 22:36 44.85411 9.13616 10942 ft 291 kts 329°
2026-05-06 22:37 44.87212 9.12322 10699 ft 291 kts 329°
2026-05-06 22:37 44.89015 9.11027 10452 ft 290 kts 329°
2026-05-06 22:37 44.90810 9.09735 10215 ft 290 kts 329°
2026-05-06 22:37 44.92615 9.08467 9971 ft 290 kts 332°
2026-05-06 22:38 44.94447 9.07286 9717 ft 289 kts 333°
2026-05-06 22:38 44.96272 9.06141 9450 ft 285 kts 333°
2026-05-06 22:38 44.98075 9.05009 9180 ft 282 kts 332°
2026-05-06 22:38 44.99864 9.03881 8911 ft 280 kts 332°
2026-05-06 22:39 45.01635 9.02758 8661 ft 280 kts 332°
2026-05-06 22:39 45.03400 9.01635 8414 ft 278 kts 332°
2026-05-06 22:39 45.05153 9.00515 8150 ft 276 kts 332°
2026-05-06 22:39 45.06791 8.99467 7894 ft 274 kts 332°
2026-05-06 22:40 45.08526 8.98355 7648 ft 273 kts 332°
2026-05-06 22:40 45.10252 8.97247 7398 ft 272 kts 332°
2026-05-06 22:40 45.11972 8.96142 7151 ft 271 kts 332°
2026-05-06 22:40 45.13691 8.95036 6907 ft 271 kts 332°
2026-05-06 22:41 45.17123 8.92826 6417 ft 271 kts 331°
2026-05-06 22:41 45.18843 8.91717 6170 ft 271 kts 331°
2026-05-06 22:41 45.20561 8.90608 5914 ft 272 kts 331°
2026-05-06 22:42 45.22280 8.89498 5664 ft 272 kts 332°
2026-05-06 22:42 45.24000 8.88387 5423 ft 270 kts 333°
2026-05-06 22:42 45.25701 8.87288 5188 ft 267 kts 333°
2026-05-06 22:42 45.27387 8.86198 4936 ft 265 kts 333°
2026-05-06 22:43 45.29056 8.85117 4674 ft 263 kts 334°
2026-05-06 22:43 45.30712 8.84045 4407 ft 260 kts 334°
2026-05-06 22:43 45.32354 8.82981 4159 ft 259 kts 334°
2026-05-06 22:43 45.33974 8.81931 4024 ft 252 kts 334°
2026-05-06 22:44 45.35542 8.80947 3988 ft 241 kts 339°
2026-05-06 22:44 45.37122 8.80356 3979 ft 230 kts 347°
2026-05-06 22:44 45.38705 8.79935 3874 ft 233 kts 348°
2026-05-06 22:44 45.40252 8.79532 3772 ft 224 kts 348°
2026-05-06 22:45 45.41747 8.79133 3620 ft 214 kts 348°
2026-05-06 22:45 45.43178 8.78745 3491 ft 206 kts 348°
2026-05-06 22:45 45.44572 8.78365 3408 ft 201 kts 348°
2026-05-06 22:45 45.45930 8.77995 3309 ft 197 kts 348°
2026-05-06 22:46 45.47275 8.77629 3198 ft 197 kts 348°
2026-05-06 22:46 45.48620 8.77262 3085 ft 197 kts 348°
2026-05-06 22:46 45.49969 8.76895 3015 ft 199 kts 349°
2026-05-06 22:46 45.51342 8.76522 2819 ft 200 kts 349°
2026-05-06 22:47 45.52694 8.76154 2554 ft 197 kts 349°
2026-05-06 22:47 45.54017 8.75793 2296 ft 188 kts 349°
2026-05-06 22:47 45.55266 8.75454 2033 ft 177 kts 350°
2026-05-06 22:47 45.56429 8.75137 1837 ft 162 kts 350°
2026-05-06 22:48 45.57494 8.74847 1591 ft 149 kts 350°
2026-05-06 22:48 45.58488 8.74575 1335 ft 145 kts 349°
2026-05-06 22:48 45.59463 8.74314 1161 ft 142 kts 349°
2026-05-06 22:48 45.60449 8.74046 988 ft 145 kts 348°
2026-05-06 22:49 45.61442 8.73771 802 ft 142 kts 350°
2026-05-06 22:49 45.62331 8.73540 718 ft 106 kts 349°
2026-05-06 22:49 45.62848 8.73398 728 ft 46 kts 349°
2026-05-06 22:49 45.63092 8.73306 733 ft 34 kts 336°
2026-05-06 22:50 45.63253 8.73089 737 ft 30 kts 310°
2026-05-06 22:50 45.63363 8.72847 740 ft 28 kts 302°
2026-05-06 22:50 45.63403 8.72590 740 ft 26 kts 259°
2026-05-06 22:50 45.63371 8.72339 740 ft 25 kts 259°
2026-05-06 22:51 45.63341 8.72107 741 ft 23 kts 256°
2026-05-06 22:51 45.63235 8.71981 738 ft 22 kts 169°
2026-05-06 22:51 45.63085 8.72026 736 ft 22 kts 169°
2026-05-06 22:51 45.62980 8.71923 734 ft 21 kts 257°
2026-05-06 22:52 45.62954 8.71720 734 ft 20 kts 261°
2026-05-06 22:52 45.62923 8.71564 734 ft 4 kts 205°
2026-05-06 22:52 45.62890 8.71576 733 ft 5 kts 162°
2026-05-06 22:52 45.62873 8.71584 732 ft 0 kts 163°